• In Belarus
  • List of Countries
  • For 7 days
  • Water Temperature
  • Weather Map
  • Weather Widgets
  • user-avatar
    Login

    Hourly Weather Brest

    Today, 28 March, Saturday

    Time Temperature Precipitation Wind Pressure Humidity
    00:00 +5°C° 0 mm 2 mps 754 mmHg 66%
    01:00 +5°C° 0 mm 2 mps 754 mmHg 67%
    02:00 +5°C° 0 mm 2 mps 754 mmHg 66%
    03:00 +4°C° 0 mm 2 mps 753 mmHg 67%
    04:00 +4°C° 0 mm 2 mps 753 mmHg 68%
    05:00 +4°C° 0 mm 2 mps 753 mmHg 69%
    06:00 +4°C° 0 mm 2 mps 753 mmHg 67%
    07:00 +5°C° 0 mm 2 mps 753 mmHg 66%
    08:00 +6°C° 0 mm 2 mps 752 mmHg 62%
    09:00 +8°C° 0 mm 2 mps 752 mmHg 56%
    10:00 +9°C° 0 mm 2 mps 752 mmHg 51%
    11:00 +11°C° 0 mm 3 mps 751 mmHg 45%
    12:00 +12°C° 0 mm 3 mps 751 mmHg 43%
    13:00 +13°C° 0 mm 3 mps 750 mmHg 40%
    14:00 +15°C° 0 mm 2 mps 750 mmHg 37%
    15:00 +15°C° 0 mm 2 mps 749 mmHg 38%
    16:00 +15°C° 0 mm 2 mps 748 mmHg 39%
    17:00 +14°C° 0 mm 2 mps 748 mmHg 39%
    18:00 +13°C° 0 mm 2 mps 748 mmHg 43%
    19:00 +12°C° 0 mm 1 mps 748 mmHg 47%
    20:00 +11°C° 0 mm 1 mps 747 mmHg 51%
    21:00 +10°C° 0 mm 1 mps 747 mmHg 53%
    22:00 +9°C° 0 mm 1 mps 747 mmHg 55%
    23:00 +9°C° 0 mm 1 mps 747 mmHg 57%

    Tomorrow, 29 March, Sunday

    Time Temperature Precipitation Wind Pressure Humidity
    00:00 +8°C° 0 mm 1 mps 746 mmHg 60%
    01:00 +8°C° 0 mm 1 mps 746 mmHg 62%
    02:00 +7°C° 0 mm 1 mps 746 mmHg 64%
    03:00 +7°C° 0 mm 1 mps 745 mmHg 66%
    04:00 +7°C° 0 mm 1 mps 745 mmHg 67%
    05:00 +6°C° 0 mm 1 mps 745 mmHg 69%
    06:00 +7°C° 0 mm 1 mps 745 mmHg 67%
    07:00 +8°C° 0 mm 1 mps 745 mmHg 66%
    08:00 +8°C° 0 mm 1 mps 744 mmHg 65%
    09:00 +9°C° 0 mm 2 mps 744 mmHg 58%
    10:00 +10°C° 0 mm 2 mps 744 mmHg 52%
    11:00 +13°C° 0 mm 2 mps 744 mmHg 46%
    12:00 +12°C° 0 mm 3 mps 744 mmHg 44%
    13:00 +13°C° 0 mm 3 mps 744 mmHg 42%
    14:00 +13°C° 0 mm 4 mps 744 mmHg 40%
    15:00 +12°C° 0 mm 5 mps 744 mmHg 47%
    16:00 +10°C° 0 mm 6 mps 744 mmHg 54%
    17:00 +9°C° 0 mm 7 mps 744 mmHg 61%
    18:00 +8°C° 0 mm 6 mps 745 mmHg 67%
    19:00 +5°C° 0 mm 6 mps 745 mmHg 72%
    20:00 +4°C° 0 mm 6 mps 746 mmHg 78%
    21:00 +3°C° 0 mm 6 mps 746 mmHg 79%
    22:00 +2°C° 0 mm 6 mps 747 mmHg 79%
    23:00 +1°C° 0 mm 6 mps 747 mmHg 79%

    Day after tomorrow, 30 March, Monday

    Time Temperature Precipitation Wind Pressure Humidity
    00:00 -1°C° 0.3 mm 6 mps 747 mmHg 84%
    01:00 -2°C° 0.3 mm 7 mps 748 mmHg 88%
    02:00 -3°C° 0.3 mm 7 mps 748 mmHg 92%
    03:00 -3°C° 0.2 mm 7 mps 748 mmHg 91%
    04:00 -4°C° 0.2 mm 7 mps 748 mmHg 90%
    05:00 -4°C° 0.2 mm 7 mps 748 mmHg 89%
    06:00 -4°C° 0.2 mm 6 mps 749 mmHg 83%
    07:00 -4°C° 0.2 mm 6 mps 749 mmHg 76%
    08:00 -4°C° 0.2 mm 6 mps 750 mmHg 70%
    09:00 -3°C° 0 mm 6 mps 750 mmHg 63%
    10:00 -1°C° 0 mm 5 mps 751 mmHg 56%
    11:00 -1°C° 0 mm 5 mps 751 mmHg 48%
    12:00 0°C° 0 mm 5 mps 751 mmHg 45%
    13:00 0°C° 0 mm 5 mps 751 mmHg 41%
    14:00 +1°C° 0 mm 5 mps 751 mmHg 37%
    15:00 +1°C° 0 mm 5 mps 751 mmHg 36%
    16:00 +1°C° 0 mm 5 mps 751 mmHg 35%
    17:00 0°C° 0 mm 5 mps 751 mmHg 33%
    18:00 -1°C° 0 mm 4 mps 751 mmHg 37%
    19:00 -1°C° 0 mm 3 mps 752 mmHg 41%
    20:00 -2°C° 0 mm 2 mps 752 mmHg 45%
    21:00 -2°C° 0 mm 2 mps 752 mmHg 45%
    22:00 -2°C° 0 mm 2 mps 752 mmHg 45%
    23:00 -2°C° 0 mm 2 mps 753 mmHg 45%

    31 March, Tuesday

    Time Temperature Precipitation Wind Pressure Humidity
    00:00 -2°C° 0 mm 2 mps 753 mmHg 46%
    01:00 -2°C° 0 mm 2 mps 753 mmHg 47%
    02:00 -2°C° 0 mm 2 mps 753 mmHg 48%
    03:00 -2°C° 0 mm 2 mps 753 mmHg 52%
    04:00 -2°C° 0 mm 2 mps 753 mmHg 55%
    05:00 -3°C° 0 mm 2 mps 754 mmHg 58%
    06:00 -2°C° 0 mm 2 mps 754 mmHg 57%
    07:00 -1°C° 0 mm 2 mps 754 mmHg 56%
    08:00 -1°C° 0 mm 3 mps 755 mmHg 54%
    09:00 0°C° 0 mm 3 mps 755 mmHg 48%
    10:00 +1°C° 0 mm 3 mps 755 mmHg 42%
    11:00 +2°C° 0 mm 3 mps 755 mmHg 37%
    12:00 +3°C° 0.1 mm 3 mps 755 mmHg 34%
    13:00 +3°C° 0.1 mm 3 mps 755 mmHg 31%
    14:00 +4°C° 0.1 mm 3 mps 755 mmHg 28%
    15:00 +4°C° 0 mm 3 mps 755 mmHg 28%
    16:00 +5°C° 0 mm 2 mps 754 mmHg 28%
    17:00 +5°C° 0 mm 2 mps 754 mmHg 28%
    18:00 +3°C° 0 mm 2 mps 754 mmHg 33%
    19:00 +3°C° 0 mm 1 mps 755 mmHg 38%
    20:00 +2°C° 0 mm 1 mps 755 mmHg 43%
    21:00 +1°C° 0 mm 1 mps 755 mmHg 43%
    22:00 +1°C° 0 mm 1 mps 755 mmHg 44%
    23:00 0°C° 0 mm 0 mps 755 mmHg 45%

    1 April, Wednesday

    Time Temperature Precipitation Wind Pressure Humidity
    00:00 +1°C° 0 mm 1 mps 755 mmHg 46%
    01:00 0°C° 0 mm 1 mps 755 mmHg 47%
    02:00 0°C° 0 mm 1 mps 755 mmHg 48%
    03:00 0°C° 0 mm 1 mps 755 mmHg 49%
    04:00 0°C° 0 mm 1 mps 755 mmHg 50%
    05:00 0°C° 0 mm 1 mps 754 mmHg 52%
    06:00 +1°C° 0 mm 1 mps 754 mmHg 49%
    07:00 +1°C° 0 mm 2 mps 754 mmHg 47%
    08:00 +1°C° 0 mm 2 mps 754 mmHg 44%
    09:00 +2°C° 0 mm 3 mps 754 mmHg 40%
    10:00 +3°C° 0 mm 4 mps 753 mmHg 36%
    11:00 +3°C° 0 mm 5 mps 753 mmHg 31%
    12:00 +3°C° 0 mm 5 mps 753 mmHg 31%
    13:00 +5°C° 0 mm 5 mps 752 mmHg 31%
    14:00 +5°C° 0 mm 5 mps 752 mmHg 31%
    15:00 +5°C° 0 mm 5 mps 751 mmHg 33%
    16:00 +5°C° 0 mm 5 mps 751 mmHg 35%
    17:00 +3°C° 0 mm 5 mps 750 mmHg 37%
    18:00 +3°C° 0 mm 4 mps 750 mmHg 41%
    19:00 +1°C° 0 mm 4 mps 750 mmHg 45%
    20:00 +1°C° 0 mm 3 mps 750 mmHg 49%
    21:00 +1°C° 0 mm 3 mps 750 mmHg 51%
    22:00 -1°C° 0 mm 4 mps 750 mmHg 52%
    23:00 -1°C° 0 mm 4 mps 750 mmHg 54%

    2 April, Thursday

    Time Temperature Precipitation Wind Pressure Humidity
    00:00 -1°C° 0 mm 4 mps 749 mmHg 55%
    01:00 -1°C° 0 mm 4 mps 749 mmHg 55%
    02:00 -1°C° 0 mm 4 mps 749 mmHg 56%
    03:00 -1°C° 0 mm 4 mps 749 mmHg 56%
    04:00 -1°C° 0 mm 4 mps 748 mmHg 55%
    05:00 -1°C° 0 mm 4 mps 748 mmHg 55%
    06:00 -1°C° 0 mm 4 mps 748 mmHg 54%
    07:00 0°C° 0 mm 4 mps 748 mmHg 54%
    08:00 0°C° 0 mm 5 mps 748 mmHg 53%
    09:00 +2°C° 0 mm 5 mps 748 mmHg 54%
    10:00 +3°C° 0 mm 5 mps 748 mmHg 54%
    11:00 +6°C° 0 mm 5 mps 748 mmHg 55%
    12:00 +6°C° 0 mm 5 mps 748 mmHg 57%
    13:00 +6°C° 0 mm 5 mps 748 mmHg 58%
    14:00 +6°C° 0 mm 5 mps 748 mmHg 60%
    15:00 +6°C° 0 mm 5 mps 748 mmHg 61%
    16:00 +6°C° 0 mm 4 mps 747 mmHg 62%
    17:00 +6°C° 0 mm 4 mps 747 mmHg 63%
    18:00 +5°C° 0 mm 3 mps 747 mmHg 67%
    19:00 +4°C° 0 mm 3 mps 747 mmHg 72%
    20:00 +5°C° 0 mm 2 mps 747 mmHg 76%
    21:00 +4°C° 0 mm 2 mps 747 mmHg 77%
    22:00 +4°C° 0 mm 2 mps 747 mmHg 79%
    23:00 +4°C° 0 mm 2 mps 748 mmHg 80%
    Show more